Location: Bathurst
(33.4193°S, 149.5775°E)
Time: 23:13:53
(UTC+10:00)

deb Explorer IX - Visible Passes

Search period start: 22 June 2021 00:00
Search period end: 02 July 2021 00:00
Orbit: 542 x 1096 km, 38.8° (Epoch: 21 June)

Date Brightness Start Highest point End Pass type
(mag) Time Alt. Az. Time Alt. Az. Time Alt. Az.
22 Jun ? 18:47:21 10° W 18:54:27 58° S 18:56:55 40° SE visible
22 Jun ? 20:35:14 10° WSW 20:38:09 26° WSW 20:38:09 26° WSW visible
23 Jun ? 18:23:21 10° W 18:30:23 58° S 18:34:18 28° ESE visible
23 Jun ? 20:11:11 10° WSW 20:15:32 38° SW 20:15:32 38° SW visible
24 Jun ? 17:59:22 10° W 18:06:19 58° S 18:11:41 19° ESE visible
24 Jun ? 19:47:08 10° WSW 19:52:56 54° SW 19:52:56 54° SW visible
25 Jun ? 17:35:26 10° W 17:42:14 57° S 17:49:08 11° ESE visible
25 Jun ? 19:23:07 10° WSW 19:30:20 66° SSE 19:30:23 66° SSE visible
25 Jun ? 21:10:39 10° WSW 21:11:38 14° WSW 21:11:38 14° WSW visible
26 Jun ? 18:59:06 10° WSW 19:06:15 66° SSE 19:07:54 52° ESE visible
26 Jun ? 20:46:35 10° WSW 20:49:09 23° WSW 20:49:09 23° WSW visible
27 Jun ? 18:35:07 10° WSW 18:42:10 65° SSE 18:45:29 34° E visible
27 Jun ? 20:22:32 10° WSW 20:26:44 37° W 20:26:44 37° W visible
28 Jun ? 18:11:08 10° WSW 18:18:05 65° SSE 18:23:11 21° E visible
28 Jun ? 19:58:29 10° WSW 20:04:27 56° WNW 20:04:27 56° WNW visible
29 Jun ? 17:47:11 10° WSW 17:54:00 65° SSE 18:01:01 11° E visible
29 Jun ? 19:34:28 10° WSW 19:41:35 65° NNW 19:42:18 61° N visible
29 Jun ? 21:23:11 10° W 21:23:35 11° W 21:23:35 11° W visible
30 Jun ? 17:23:15 10° WSW 17:29:56 65° SSE 17:37:11 10° E visible
30 Jun ? 19:10:28 10° WSW 19:17:29 65° NNW 19:20:19 38° NE visible
30 Jun ? 20:59:06 10° W 21:01:37 17° WNW 21:01:37 17° WNW visible
01 Jul ? 18:46:29 10° WSW 18:53:23 65° NNW 18:58:34 20° NE visible
01 Jul ? 20:35:03 10° W 20:39:53 21° NW 20:39:53 21° NW visible
